Flag for Germany Weather past 2 weeks in Güstrow, Mecklenburg-Western Pomerania, Germany

Now
54 °F

Passing clouds.


Feels Like: 53 °F
Forecast: 45 / 60 °F
Wind: 5 mph from Southwest

Location: Laage

Current Time: May 23, 2015 at 12:33:45 AM

Latest Report: May 22, 2015 at 11:20 PM


Visibility: N/A

Pressure: 30.15 "Hg

Humidity: 82%

Dew point: 48 °F

Location of GüstrowLocation

Historic Weather in Güstrow — Graph

°F

Güstrow temperature yesterday

Maximum temperature yesterday: 64 °F (at 4:20 PM)
Minimum temperature yesterday: 39 °F (at 4:20 AM)
Average temperature yesterday: 54 °F

Past Weeks' High & Low Weather Summary

 TemperatureHumidityPressure
High75 °F (May 12, 2:20 PM)100% (May 8, 5:20 AM)30.36 "Hg (May 8, 5:20 AM)
Low37 °F (May 11, 1:20 AM)44% (May 10, 4:20 PM)29.56 "Hg (May 19, 1:20 AM)
Average51 °F75%30.00 "Hg
* Reported May 7 10:20 PM — May 22 10:20 PM, Güstrow, Weather by CustomWeather, © 2015

Note: Actual official high and low records may vary slightly from our data, if they occured in-between our weather recording intervals... More about our weather records

Advertising

Güstrow weather history for previous 24 hours

 ConditionsComfort  
Time TempWeatherWind HumidityBarometerVisibility
10:20 PM
Fri, May 22
57 °FPassing clouds.3 mph72%30.15 "HgN/A
9:20 PM61 °FScattered clouds.3 mph63%30.15 "HgN/A
8:20 PM63 °FPartly sunny.2 mph59%30.15 "HgN/A
7:20 PM63 °FPartly sunny.3 mph56%30.15 "HgN/A
6:20 PM63 °FPartly sunny.6 mph56%30.15 "HgN/A
5:20 PM63 °FPartly sunny.6 mph52%30.18 "HgN/A
4:20 PM64 °FPartly sunny.6 mph52%30.18 "HgN/A
3:20 PM63 °FPartly sunny.8 mph56%30.21 "HgN/A
2:20 PM63 °FScattered clouds.7 mph56%30.21 "HgN/A
1:20 PM61 °FScattered clouds.9 mph55%30.24 "HgN/A
12:20 PM59 °FScattered clouds.8 mph55%30.24 "HgN/A
11:20 AM59 °FScattered clouds.7 mph59%30.27 "HgN/A
10:20 AM55 °FPassing clouds.7 mph72%30.27 "HgN/A
9:20 AM52 °FScattered clouds.7 mph77%30.27 "HgN/A
8:20 AM50 °FScattered clouds.5 mph82%30.27 "HgN/A
7:20 AM46 °FScattered clouds.5 mph87%30.27 "HgN/A
6:20 AM43 °FFog.2 mph93%30.27 "HgN/A
5:20 AM41 °FFog.1 mph93%30.27 "HgN/A
4:20 AM39 °FFog.2 mph93%30.27 "HgN/A
3:20 AM41 °FPassing clouds.No wind93%30.27 "HgN/A
2:20 AM43 °FQuite cool.2 mph93%30.27 "HgN/A
1:20 AM46 °FCool.3 mph82%30.27 "HgN/A
12:20 AM48 °FPassing clouds.5 mph76%30.27 "HgN/A
Weather by CustomWeather, © 2015

See weather overviewHow to use our weather pages